Regional Weather Roundup
Issued by NWS

Home | Current Version | Previous Version | Graphics & Text | Print | Product List | Glossary On
Versions: 1 2 3 4 5 6 7 8 9 10 11 12 13 14 15 16 17 18 19 20 21 22 23 24 25 26 27 28 29 30 31 32 33 34 35 36 37 38 39 40 41 42 43 44 45 46 47 48 49 50
000
ASUS43 KOAX 032002
RWRNE

WEATHER ROUNDUP FOR NEBRASKA
NATIONAL WEATHER SERVICE OMAHA NE
300 PM CDT SUN MAY 03 2015

NOTES: SATELLITE DATA IS BEING USED TO AUGMENT CLOUD COVER ABOVE
       12000 FEET.
       "FAIR" INDICATES FEW OR NO CLOUDS BELOW 12,000 FEET WITH NO
       SIGNIFICANT WEATHER AND/OR OBSTRUCTIONS TO VISIBILITY.

  * THESE STATIONS DO NOT REPORT WEATHER SUCH AS RAIN...SNOW OR FOG.

NEZ001>004-019>022-054>056-032100-
NEBRASKA PANHANDLE

CITY           SKY/WX    TMP DP  RH WIND       PRES   REMARKS
SCOTTSBLUFF    MOSUNNY   72  39  30 NE14G23   29.96S
ALLIANCE       SUNNY     69  40  34 NE22      29.96R
CHADRON        SUNNY     70  40  33 NE18      29.97F
KIMBALL        MOSUNNY   68  39  34 NE13G18   29.96F
SIDNEY         MOSUNNY   72  43  35 NE14G21   29.95F
$$

NEZ057>060-069>072-079>082-032100-
SOUTHWEST NEBRASKA

CITY           SKY/WX    TMP DP  RH WIND       PRES   REMARKS
NORTH PLATTE   SUNNY     78  46  32 N12G23    29.85R
IMPERIAL       SUNNY     82  41  23 N16G25    29.86R
MCCOOK         SUNNY     90  37  15 NW13G20   29.79F
$$

NEZ005>010-023>029-035>040-094-032100-
NORTH CENTRAL NEBRASKA

CITY           SKY/WX    TMP DP  RH WIND       PRES   REMARKS
VALENTINE      LGT RAIN  73  37  27 NE21G35   29.91R
AINSWORTH      SUNNY     73  41  31 NE17G31   29.89R
BROKEN BOW     SUNNY     82  50  32 N22G28    29.80R
ORD            SUNNY     83  53  35 N17G25    29.76R
$$

NEZ041-046>049-061>064-073>077-083>087-032100-
SOUTH CENTRAL NEBRASKA

CITY           SKY/WX    TMP DP  RH WIND       PRES   REMARKS
GRAND ISLAND   SUNNY     90  45  21 W8G23     29.73F
AURORA         SUNNY     90  41  18 SW6G21    29.72F
HASTINGS       SUNNY     89  42  19 W9G24     29.74S
KEARNEY *      SUNNY     88  43  20 W12G21    29.76S
$$

NEZ011>018-030>034-042>045-032100-
NORTHEAST NEBRASKA

CITY           SKY/WX    TMP DP  RH WIND       PRES   REMARKS
NORFOLK        MOSUNNY   85  54  34 CALM      29.72F
ALBION         MOSUNNY   83  51  32 CALM      29.74S
BLAIR          PTSUNNY   80  59  49 S12       29.75S
COLUMBUS *     MOSUNNY   82  55  39 SE6       29.75S
FREMONT        MOSUNNY   83  59  44 S7        29.74S
TEKAMAH        SUNNY     87  59  38 SW10G24   29.72S
$$

NEZ050>053-065>068-078-088>093-032100-
SOUTHEAST NEBRASKA

CITY           SKY/WX    TMP DP  RH WIND       PRES   REMARKS
LINCOLN        TSTM      73  66  78 E6        29.75S
OMAHA EPPLEY   PTSUNNY   80  59  48 S9        29.73F
BEATRICE       MOSUNNY   85  59  40 S14       29.74F
FALLS CITY     PTSUNNY   82  59  45 SW20      29.77S
NEBRASKA CITY  PTSUNNY   82  51  34 SW10G17   29.77S
PLATTSMOUTH    CLOUDY    78  56  46 S6        29.76F
$$

NEZ044-045-051>053-067-032100-
OMAHA AREA

CITY           SKY/WX    TMP DP  RH WIND       PRES   REMARKS
OMAHA EPPLEY   PTSUNNY   80  59  48 S9        29.73F
BLAIR          PTSUNNY   80  59  49 S12       29.75S
FREMONT        MOSUNNY   83  59  44 S7        29.74S
OFFUTT AFB     PTSUNNY   77  60  54 S14       29.72F
PLATTSMOUTH    CLOUDY    78  56  46 S6        29.76F
WAHOO          FAIR      77  58  52 SE6       29.74S
$$


USA.gov is the U.S. government's official web portal to all federal, state and local government web resources and services.